     2              OBSERVATION DATA    GPS                 RINEX VERSION / TYPE
teqc 1997Jul24 19970814                                     PGM / RUN BY / DATE
                                                            COMMENT
Original Marker Name: 0805                                  COMMENT
Campaign Name: HPGN 1991                                    COMMENT
4-Character Station Name: 0805                              COMMENT
6-Character Antenna Code: TRMSST                            COMMENT
Vertical Measurement Point: BPA                             COMMENT
Vertical Offset to Rinex Ref. Point: 0.0000                 COMMENT
Radial Measurement Point: RRP                               COMMENT
Radial Offset to Rinex Ref. Point: 0.0000                   COMMENT
Antenna Height from Field Measurement: 2.2200 m             COMMENT
Original XYZ: -2417567.3106 -4638355.6623 3638940.4850      COMMENT
New XYZ position is based on association with SCEC monument COMMENT
E1F2O3G2+0011. Position of that monument is believed to be  COMMENT
valid to within 1 m horizontally; vertical accuracy         COMMENT
should be no worse than 3-times this value.                 COMMENT
                                                            COMMENT
Revised Rinex header created by UCSD GPS archive for        COMMENT
GSAC on 19-Apr-1999 (1999:109) 04:41:59 GMT                 COMMENT
For assistance contact dagnew@ucsd.edu or hjohnson@ucsd.edu COMMENT
                                                            COMMENT
HPGN 08-5 GPS KRAMER 1990                                   MARKER NAME
unknown NATIONAL GEODETIC SURVEY                            OBSERVER / AGENCY
484 TRIMBLE 4000 SST NP 4.30 / SP 4.20                      REC # / TYPE / VERS
18 TR 4000SST L1/L2 GEO                                     ANT # / TYPE
 -2417567.0000 -4638336.0000  3638932.0000                  APPROX POSITION XYZ
        2.2200        0.0000        0.0000                  ANTENNA: DELTA H/E/N
     1     1     0                                          WAVELENGTH FACT L1/2
     3    C1    L1    L2                                    # / TYPES OF OBSERV
     0                                                      INTERVAL
  1991     5     4     1    12   15.000000                  TIME OF FIRST OBS
  1991     5     4     1    18    0.000000                  TIME OF LAST OBS
     0                                                      # OF SATELLITES
                                                            END OF HEADER
 91  5  4  1 12 15.0000000  0  4G13G 2G 6G12
  21039056.5554         -0.72258
  23622992.352          -0.59915
  23232139.203          -0.01516
  21986883.8984         -0.14157
 91  5  4  1 12 45.0000000  0  4G13G 2G 6G12
  21043547.9144      23602.89748      9225.09562
  23632828.4924      51683.99945        -0.24071
  23248200.648       84418.973 6     32921.49821
  21969634.1414     -90656.86347        -0.09272
 91  5  4  1 13  0.0000000  0  4G13G 2G 6G12
  21045816.1804      35519.51548     18510.76562
  23637762.5864      77613.80345     20204.72961
  23256257.117      126750.483 6     65906.98621
  21961038.4614    -135821.37147    -35193.17462
 91  5  4  1 13 15.0000000  0  4G13G 2G 6G12
  21048097.5004      47509.09448     27853.28462
  23642708.8524     103598.79146     40452.68661
  23264326.922      169159.802 6     98953.10121
  21952464.6254    -180879.29447    -70303.20462
 91  5  4  1 13 30.0000000  0  4G13G 2G 6G12
  21050391.5314      59567.31948     37249.29662
  23647664.438      129634.813 6     60740.41321
  23272412.078      211642.565 6    132056.44121
  21943909.2664    -225834.37847   -105333.11162
 91  5  4  1 13 45.0000000  0  4G13G 2G 6G12
  21052699.2274      71693.77348     46698.47562
  23652626.844      155721.546 5     81067.65621
  23280510.406      254198.088 6    165216.48421
  21935375.2114    -270686.59647   -140282.85662
 91  5  4  1 14  0.0000000  0  4G13G 2G 6G12
  21055020.2344      83886.83748     56199.55462
  23657599.305      181857.684 5    101433.39621
  23288622.828      296824.940 6    198432.10221
  21926859.328     -315436.755 7   -175153.07222
 91  5  4  1 14 15.0000000  0  4G13G 2G 6G12
  21057354.6644      96154.54148     65758.80362
  23662584.0554     208051.40445    121843.98961
  23296747.961      339530.872 6    231709.34721
  21918364.4224    -360076.36847   -209937.14462
 91  5  4  1 14 30.0000000  0  4G13G 2G 6G12
  21059701.5474     108488.82748     75369.92562
  23667578.969      234294.847 5    142293.35221
  23304889.648      382307.629 6    265041.78121
  21909889.4694    -404613.05147   -244641.01262
 91  5  4  1 14 45.0000000  0  4G13G 2G 6G12
  21062064.6564     120907.78848     85047.03362
  23672586.039      260606.475 5    162795.84521
  23313046.023      425173.595 6    298443.72321
  21901437.5704    -449027.74947   -279249.82862
 91  5  4  1 15  0.0000000  0  4G13G 2G 6G12
  21064438.0164     133379.19548     94765.00362
  23677599.547      286954.242 5    183326.48821
  23321214.3204     468096.29646    331889.87861
  21893003.4844    -493352.40347   -313788.47962
 91  5  4  1 15 15.0000000  0  4G13G 2G 6G12
  21066823.0634     145912.11148    104530.90462
  23682622.6884     313347.75845    203892.77961
  23329395.320      511085.020 5    365387.47721
  21884587.1174    -537576.92247   -348249.10562
 91  5  4  1 15 30.0000000  0  4G13G 2G 6G12
  21069219.9774     158507.07448    114345.15262
  23687654.3204     339787.84045    224495.34161
  23337588.563      554140.340 6    398936.96921
  21876191.117     -581700.172 7   -382630.81822
 91  5  4  1 15 45.0000000  0  4G13G 2G 6G12
  21071631.5234     171183.40548    124222.80362
  23692696.7274     366293.94845    245149.37161
  23345799.242      597281.427 6    432553.29621
  21867817.133     -625702.156 7   -416918.03322
 91  5  4  1 16  0.0000000  0  4G13G 2G 6G12
  21074057.6094     183929.74648    134155.00962
  23697752.867      392854.713 5    265845.99121
  23354020.430      640496.639 6    466227.36621
  21859465.227     -669593.896 7   -451119.34822
 91  5  4  1 16 15.0000000  0  4G13G 2G 6G12
  21076496.0004     196745.00248    144140.92162
  23702818.0394     419469.50045    286584.70161
  23362258.961      683785.026 6    499958.47721
  21851134.039     -713375.718 7   -485235.01222
 91  5  4  1 16 30.0000000  0  4G13G 2G 6G12
  21078948.6414     209630.64248    154181.67262
  23707891.8754     446139.99645    307366.81961
  23370510.781      727148.159 6    533747.82421
  21842823.711     -757045.443 7   -519263.33022
 91  5  4  1 16 45.0000000  0  4G13G 2G 6G12
  21081414.4224     222587.95348    164278.27862
  23712978.219      472867.733 5    328193.55321
  23378777.500      770587.176 6    567596.29121
  21834535.070     -800601.330 7   -553202.93222
 91  5  4  1 17  0.0000000  0  4G13G 2G 6G12
  21083894.9224     235625.59048    174437.46562
  23718077.711      499661.778 5    349071.95421
  23387060.414      814110.768 6    601510.66921
  21826270.383     -844033.999 7   -587046.53222
 91  5  4  1 17 15.0000000  0  4G13G 2G 6G12
  21086387.1644     248719.76248    184640.70162
  23723185.352      526498.211 5    369983.37321
  23395354.328      857694.692 6    635472.04721
  21818023.586     -887366.992 7   -620812.45822
 91  5  4  1 17 30.0000000  0  4G13G 2G 6G12
  21088888.8284     261867.92048    194886.01062
  23728298.719      553374.966 5    390926.23121
  23403657.852      901336.692 5    669478.69621
  21809797.258     -930601.960 7   -654502.00322
 91  5  4  1 17 45.0000000  0  4G13G 2G 6G12
  21091402.8054     275080.50848    205181.52562
  23733423.711      580302.576 5    411908.70321
  23411976.508      945047.128 5    703538.66521
  21801590.289     -973727.837 7   -688106.53823
